Home > Weather > Toccoa > Past weeks

Flag for USA Past Weather in Toccoa, Georgia, USA — Yesterday and Last 2 Weeks

Now
90 °F

Sunny.


Feels Like: 95 °F
Forecast: 69 / 90 °F
Wind: No wind

Location: Clemson-Oconee County Airport

Current Time: Aug 25, 2016 at 2:47:11 PM

Latest Report: Aug 25, 2016 at 1:54 PM


Visibility: 10 mi

Pressure: 30.14 "Hg

Humidity: 52%

Dew Point: 70 °F

Location of ToccoaLocation

Past Weather in Toccoa — Graph

°F

Toccoa Temperature Yesterday

Maximum temperature yesterday: 83 °F (at 3:54 PM)
Minimum temperature yesterday: 71 °F (at 8:54 AM)
Average temperature yesterday: 77 °F

High & Low Weather Summary for the Past Weeks

 TemperatureHumidityPressure
High96 °F (Aug 17, 4:54 PM)94% (Aug 25, 8:57 AM)30.31 "Hg (Aug 25, 8:57 AM)
Low71 °F (Aug 24, 8:54 AM)38% (Aug 17, 4:54 PM)29.86 "Hg (Aug 20, 5:54 PM)
Average81 °F73%30.10 "Hg
* Reported Aug 10 1:54 PM — Aug 25 1:54 PM, Toccoa, Weather by CustomWeather, © 2016

Note: Actual official high and low records may vary slightly from our data, if they occured in-between our weather recording intervals... More about our weather records

Advertising

Toccoa Weather History for the Previous 24 Hours

Scroll right to see more
 ConditionsComfort  
Time TempWeatherWind HumidityBarometerVisibility
1:54 PM
Thu, Aug 25
90 °FSunny.No wind52%30.14 "Hg10 mi
12:54 PM87 °FSunny.5 mph55%30.16 "Hg10 mi
11:54 AM85 °FSunny.7 mph59%30.18 "Hg10 mi
10:54 AM83 °FSunny.N/A65%30.19 "Hg10 mi
9:54 AM79 °FPassing clouds.3 mph79%30.19 "Hg10 mi
8:57 AM74 °FFog.3 mph94%30.22 "Hg4 mi
7:54 AM73 °FFog.No wind90%30.19 "Hg0 mi
7:03 AM72 °FFog.No wind91%30.22 "Hg2 mi
6:54 AM72 °FFog.No wind91%30.18 "Hg3 mi
5:54 AM73 °FFog.No wind90%30.17 "Hg1 mi
4:54 AM73 °FFog.No wind90%30.16 "Hg2 mi
3:53 AM73 °FFog.No wind90%30.19 "Hg3 mi
2:54 AM73 °FFog.3 mph90%30.16 "Hg4 mi
1:54 AM75 °FPassing clouds.No wind88%30.17 "Hg8 mi
12:54 AM76 °FClear.No wind85%30.19 "Hg10 mi
11:54 PM
Wed, Aug 24
75 °FClear.3 mph85%30.21 "Hg10 mi
10:54 PM76 °FClear.No wind85%30.22 "Hg10 mi
9:54 PM76 °FClear.No wind80%30.21 "Hg10 mi
8:54 PM78 °FSunny.No wind79%30.20 "Hg10 mi
7:54 PM79 °FSunny.No wind77%30.19 "Hg10 mi
6:54 PM82 °FSunny.No wind70%30.19 "Hg10 mi
5:54 PM82 °FSunny.No wind67%30.20 "Hg10 mi
4:54 PM82 °FPassing clouds.5 mph65%30.22 "Hg10 mi
3:54 PM83 °FSunny.3 mph63%30.23 "Hg10 mi
2:54 PM81 °FPartly sunny.No wind69%30.26 "Hg10 mi
Weather by CustomWeather, © 2016

See weather overviewHow to use our weather pages